EW6254 Weather Reports


Display with metric or nautical units.
time (UTC)temp
F
wind
direction
speed
MPH
gust
MPH
rain 1hr
in
rain 24hr
in
rain mn
in
humidity
%
barometer
mb
20180620113404 67 88 0.0 0.0 0.06 1.17 0.22 96 1008.2
20180620112352 67 202 0.0 0.0 0.10 1.21 0.21 96 1008.8
20180620111354 67 211 0.0 0.0 0.16 1.21 0.19 96 1008.5
20180620110347 67 153 0.0 0.0 0.26 1.18 0.16 96 1008.5
20180620105314 67 91 0.0 0.0 0.13 1.13 0.11 96 1008.7
20180620104308 67 90 0.0 0.0 0.08 1.11 0.09 96 1008.4
20180620103320 67 62 0.0 0.0 0.00 1.09 0.07 96 1008.4
20180620102253 67 56 0.0 0.0 0.00 1.09 0.07 96 1008.3
20180620101257 67 56 0.0 0.0 0.00 1.09 0.07 96 1008.3
20180620100900 67 57 0.0 0.0 0.00 1.09 0.07 96 1008.2
20180620095911 67 57 0.0 0.0 0.00 1.09 0.07 96 1008.1
20180620094928 67 57 0.0 0.0 0.00 1.08 0.06 95 1008.2
20180620093852 67 299 0.0 0.0 0.00 1.08 0.06 95 1008.2
20180620092856 67 299 0.0 0.0 0.06 1.08 0.06 95 1008.2
20180620091852 67 244 0.0 0.0 0.07 1.08 0.06 95 1008.6
20180620090829 67 211 0.0 0.0 0.00 1.06 0.04 95 1008.4
20180620085756 67 214 0.0 0.0 0.00 1.06 0.04 95 1008.9
20180620084732 67 157 0.0 0.0 0.00 1.06 0.04 95 1008.7
20180620083743 67 137 0.0 0.0 0.00 1.06 0.04 95 1008.4
20180620082717 67 22 0.0 0.0 0.00 1.05 0.04 95 1007.9
20180620081733 66 297 0.0 0.0 0.00 1.05 0.03 95 1007.7
20180620080723 66 299 0.0 0.0 0.00 1.05 0.03 95 1007.4
20180620075653 66 338 0.0 0.0 0.00 1.05 0.03 95 1007.2
20180620074636 66 341 0.0 0.0 0.00 1.05 0.03 95 1007.0
20180620073642 66 5 0.0 0.0 0.00 1.05 0.03 95 1007.5
20180620072701 66 309 0.0 0.0 0.00 1.05 0.03 95 1008.6
20180620071702 66 296 0.0 0.0 0.00 1.05 0.03 94 1009.1
20180620070628 66 13 0.0 0.0 0.04 1.04 0.02 94 1008.8
20180620065614 66 207 0.0 0.0 0.04 1.04 0.02 94 1010.5
20180620064555 66 195 0.0 0.0 0.00 1.03 0.01 94 1010.7
20180620063536 66 238 0.0 0.0 0.00 1.03 0.01 94 1010.5
20180620062554 66 194 0.0 0.0 0.00 1.02 0.00 94 1010.3
20180620061616 66 236 0.0 0.0 0.00 1.02 0.00 94 1010.3
20180620060544 66 273 0.0 0.0 0.00 1.02 0.00 94 1010.1
20180620055554 65 273 0.0 0.0 0.00 1.02 0.00 94 1009.9
20180620054537 65 274 0.0 0.0 0.00 1.02 0.00 94 1009.4
20180620053541 65 273 0.0 0.0 0.00 1.02 0.00 94 1009.3
20180620052539 65 327 0.0 0.0 0.00 1.02 0.00 93 1009.0
20180620051514 65 323 0.0 0.0 0.00 1.04 0.00 93 1008.5
20180620050527 65 313 0.0 0.0 0.00 1.70 0.00 93 1008.5
20180620045518 65 307 0.0 0.0 0.00 1.79 1.70 93 1008.9
20180620044442 65 348 0.0 0.0 0.00 1.83 1.70 93 1009.3
20180620043440 65 305 0.0 0.0 0.05 1.83 1.70 92 1009.6
20180620042449 65 0 0.0 0.0 0.05 1.83 1.70 92 1009.9
20180620041451 66 308 0.0 0.0 0.12 1.82 1.69 91 1009.9
20180620040511 67 13 0.0 0.0 0.33 1.80 1.67 91 1009.9
20180620035512 68 299 0.0 0.0 1.07 1.73 1.60 90 1009.7
20180620034458 72 180 0.0 0.0 2.32 1.45 1.32 87 1010.3
20180620033514 75 289 0.0 0.0 0.00 1.33 1.19 90 1009.6
20180620032535 75 309 0.0 0.0 0.00 1.33 1.19 90 1009.6
20180620031529 75 297 0.0 0.0 0.00 1.33 1.19 90 1009.7
20180620030515 75 98 0.0 0.0 0.00 1.33 1.19 90 1009.5
20180620025517 75 102 0.0 0.0 0.00 1.33 1.19 90 1009.2
20180620024440 75 344 0.0 0.0 0.00 1.33 1.19 90 1008.7
20180620023453 75 355 0.0 0.0 0.00 1.33 1.19 90 1008.5
20180620022451 75 24 0.0 0.0 0.00 1.33 1.19 90 1008.2
20180620021427 75 69 0.0 0.0 0.00 1.33 1.19 90 1007.9
20180620020442 75 80 0.0 0.0 0.00 1.33 1.19 89 1007.6
20180620015441 75 81 0.0 0.0 0.00 1.33 1.19 89 1007.4
20180620014440 75 61 0.0 0.0 0.00 1.33 1.19 89 1007.1
20180620013454 76 26 0.0 0.0 0.00 1.33 1.19 89 1007.0
20180620012445 76 77 0.0 0.0 0.00 1.33 1.19 89 1006.5
20180620011419 76 67 0.0 0.0 0.00 1.33 1.19 89 1007.2
20180620010417 76 341 0.0 0.0 0.00 1.33 1.19 88 1007.9
20180620005427 76 325 0.0 0.0 0.00 1.33 1.19 88 1008.2
20180620004351 76 25 0.0 0.0 0.00 1.33 1.19 88 1008.2
20180620003319 76 59 0.0 0.0 0.00 1.33 1.19 88 1008.1
20180620002252 76 59 0.0 0.0 0.00 1.33 1.19 88 1008.0
20180620001254 76 61 0.0 0.0 0.00 1.33 1.19 88 1007.9
20180620000232 76 27 0.0 0.0 0.00 1.33 1.19 88 1007.8
20180619235219 76 17 0.0 0.0 0.00 1.33 1.19 87 1007.9
20180619234215 76 42 0.0 0.0 0.00 1.34 1.19 87 1007.9
20180619233153 76 17 0.0 0.0 0.00 1.34 1.19 87 1008.0
20180619232132 76 16 0.0 0.0 0.00 1.35 1.19 87 1008.3
20180619231136 76 27 0.0 0.0 0.00 1.38 1.19 86 1008.3
20180619230117 77 13 0.0 0.0 0.00 1.38 1.19 86 1008.7
20180619225114 77 38 0.0 0.0 0.00 1.38 1.19 86 1008.7
20180619224124 77 0 0.0 0.0 0.00 1.38 1.19 86 1008.7
20180619223135 77 35 0.0 0.0 0.00 1.38 1.19 86 1008.8
20180619222130 77 26 0.0 0.0 0.00 1.42 1.19 85 1008.6
20180619221127 78 17 0.0 0.0 0.00 1.42 1.19 83 1008.5
20180619220136 80 348 0.0 0.0 0.00 1.42 1.19 81 1008.6
20180619215109 81 53 0.0 0.0 0.00 1.61 1.19 79 1008.8
20180619214125 81 55 0.0 0.0 0.00 1.64 1.19 78 1008.9
20180619213050 82 34 0.0 0.0 0.00 1.64 1.19 77 1009.0
20180619212043 82 346 0.0 0.0 0.00 1.65 1.19 77 1009.2
20180619211104 82 261 0.0 0.0 0.00 1.65 1.19 76 1009.4
20180619210034 82 261 0.0 0.0 0.00 1.73 1.19 77 1009.5
20180619205004 82 248 0.0 0.0 0.00 1.79 1.19 76 1009.4
20180619204013 82 215 0.0 0.0 0.00 1.79 1.19 76 1009.3
20180619203009 82 203 0.0 0.0 0.00 1.79 1.19 76 1009.3
20180619202017 82 171 0.0 0.0 0.00 1.79 1.19 76 1009.2
20180619201007 82 205 0.0 0.0 0.00 1.79 1.19 75 1009.2
20180619195945 83 205 0.0 0.0 0.00 1.79 1.19 73 1009.1
20180619194920 83 210 0.0 0.0 0.00 1.79 1.19 73 1008.8
20180619193924 82 226 0.0 0.0 0.00 1.79 1.19 74 1008.8
20180619192921 82 228 0.0 0.0 0.00 1.79 1.19 74 1009.0
20180619191854 82 205 0.0 0.0 0.00 1.79 1.19 75 1008.9
20180619190828 81 266 0.0 0.0 0.00 1.79 1.19 78 1008.9
20180619185835 80 225 0.0 0.0 0.00 1.79 1.19 80 1009.0
20180619184843 80 135 0.0 0.0 0.00 1.79 1.19 79 1009.3
20180619183901 80 209 0.0 0.0 0.00 1.79 1.19 77 1009.5
20180619182837 80 211 0.0 0.0 0.00 1.79 1.19 76 1009.8
20180619181830 81 210 0.0 0.0 0.00 1.79 1.19 75 1009.6
20180619180804 81 143 0.0 0.0 0.00 1.79 1.19 74 1009.6
20180619175802 81 209 0.0 0.0 0.00 1.79 1.19 73 1009.6
20180619174758 80 273 0.0 0.0 0.00 1.79 1.19 76 1009.7
20180619173738 80 173 0.0 0.0 0.00 1.79 1.19 74 1009.8
20180619172736 80 211 0.0 0.0 0.00 1.79 1.19 78 1009.8
20180619171751 79 155 0.0 0.0 0.00 1.79 1.19 77 1009.6
20180619170740 79 202 0.0 0.0 0.00 1.79 1.19 78 1010.0
20180619165717 79 200 0.0 0.0 0.00 1.79 1.19 79 1009.9
20180619164739 79 244 0.0 0.0 0.00 1.79 1.19 82 1010.1
20180619163728 76 105 0.0 0.0 0.00 1.79 1.19 87 1010.0
20180619162657 75 155 0.0 0.0 0.00 1.79 1.19 91 1010.0
20180619161654 74 204 0.0 0.0 0.00 1.79 1.19 92 1010.1
20180619160702 73 117 0.0 0.0 0.00 1.79 1.19 94 1010.0
20180619155722 73 155 0.0 0.0 0.00 1.79 1.19 94 1010.3
20180619154738 73 213 0.0 0.0 0.00 1.79 1.19 94 1010.4
20180619153725 72 215 0.0 0.0 0.00 1.79 1.19 95 1010.7
20180619152653 72 220 0.0 0.0 0.00 1.79 1.19 95 1011.0
20180619151642 72 207 0.0 0.0 0.00 1.79 1.19 95 1011.2
20180619150615 71 146 0.0 0.0 0.00 1.79 1.19 95 1011.1
20180619145631 71 144 0.0 0.0 0.00 1.79 1.19 95 1011.5
20180619144621 71 166 0.0 0.0 0.00 1.79 1.19 95 1011.6
20180619143621 71 141 0.0 0.0 0.00 1.79 1.19 95 1011.7
20180619142605 71 155 0.0 0.0 0.00 1.79 1.19 95 1011.4
20180619141551 71 205 0.0 0.0 0.00 1.79 1.19 94 1011.1
20180619140528 70 193 0.0 0.0 0.00 1.79 1.19 94 1010.9
20180619135510 70 95 0.0 0.0 0.00 1.79 1.19 94 1010.8
20180619134451 70 22 0.0 0.0 0.00 1.78 1.19 94 1010.6
20180619133441 71 5 0.0 0.0 0.04 1.78 1.19 94 1011.2
20180619132425 70 22 0.0 0.0 0.04 1.78 1.19 94 1011.3
20180619131401 71 19 0.0 0.0 0.07 1.77 1.17 94 1010.7
20180619130328 71 29 0.0 0.0 0.09 1.76 1.16 94 1011.2
20180619125332 71 345 0.0 0.0 0.07 1.74 1.15 94 1010.9
20180619124344 71 131 0.0 0.0 0.14 1.73 1.14 94 1010.7
20180619123342 72 155 0.0 0.0 0.00 1.67 1.07 94 1010.3
20180619122317 71 142 0.0 0.0 0.04 1.67 1.07 94 1010.4
20180619121324 72 81 0.0 0.0 0.11 1.67 1.07 93 1010.6
20180619120305 72 110 0.0 0.0 0.61 1.65 1.05 93 1010.3
20180619115323 72 207 0.0 0.0 0.91 1.52 0.95 93 1010.3
20180619114252 72 228 0.0 0.0 0.29 1.48 0.89 93 1009.6